STARLINK-1375 (45546 NORAD) Tracking and Keplerian Element Data

This shows tracking and keplerian element data for the satellite.

Feedback or suggestion? Click here.




ElementValue
Catalog45546
NameSTARLINK-1375
Epoch Orbit1244
Epoch Day190.16667824
Epoch Year2020
RAAN41.5554
Inclination52.9998
Eccentricity0.0001709
Argument of Perigee79.4376
Mean Anonmoly72.3267
Mean Motion15.05592919
Decay Rate-0.00013337
L11 45546U 20025R 20190.16667824 -.00013337 00000-0 -89757-3 0 9993
L22 45546 52.9998 41.5554 0001709 79.4376 72.3267 15.05592919 12449

Live tracking and technical data element details for STARLINK-1375 (NORAD 45546). STARLINK-1375 can be tracked NOW for your location showing map with azimuth and elevation plus other details from your city location.

Track the satellite on the map from your city or location and see movement details for azimuth, elevation, latitude, longitude, range, height, and movement on the map or in text.







IsCatalogInMostPopularTable: catalog: 45546, numindb: 17
Update: records affected: 1



GetName: 45546 STARLINK-1375

Hit Count: updated at: Thu, 09 Jul 2020 01:51:24 GMT